EW9596 Weather Reports


Display with metric or nautical units.
time (UTC)temp
F
wind
direction
speed
MPH
gust
MPH
rain 1hr
in
rain 24hr
in
rain mn
in
humidity
%
barometer
mb
20260906030032 64 154 0.0 0.0 0.00 0.00 0.00 83 1014.3
20260906025533 64 154 0.0 0.0 0.00 0.00 0.00 82 1014.4
20260906025033 64 154 0.0 0.0 0.00 0.00 0.00 82 1014.5
20260906024533 65 154 0.0 0.0 0.00 0.00 0.00 82 1014.5
20260906024032 65 154 0.0 0.0 0.00 0.00 0.00 82 1014.5
20260906023533 65 154 0.0 0.0 0.00 0.00 0.00 82 1014.5
20260906023035 65 154 0.0 0.0 0.00 0.00 0.00 82 1014.5
20260906022532 65 154 0.0 0.0 0.00 0.00 0.00 82 1014.4
20260906022037 66 154 0.0 0.0 0.00 0.00 0.00 82 1014.4
20260906021531 66 154 0.0 0.0 0.00 0.00 0.00 81 1014.4
20260906021029 66 154 0.0 0.0 0.00 0.00 0.00 81 1014.4
20260906020529 66 154 0.0 0.0 0.00 0.00 0.00 81 1014.3
20260906020029 66 154 0.0 0.0 0.00 0.00 0.00 81 1014.2
20260906015533 66 74 0.0 0.0 0.00 0.00 0.00 81 1014.3
20260906015028 66 75 0.0 0.0 0.00 0.00 0.00 80 1014.2
20260906014533 66 74 0.0 0.0 0.00 0.00 0.00 80 1014.0
20260906014029 67 75 0.0 0.0 0.00 0.00 0.00 80 1014.1
20260906013527 67 75 0.0 0.0 0.00 0.00 0.00 80 1014.0
20260906013028 67 75 0.0 0.0 0.00 0.00 0.00 79 1014.0
20260906012527 67 75 0.0 0.0 0.00 0.00 0.00 79 1013.9
20260906012029 67 75 0.0 0.0 0.00 0.00 0.00 79 1014.0
20260906011526 67 75 0.0 0.0 0.00 0.00 0.00 78 1014.0
20260906011025 67 75 0.0 0.0 0.00 0.00 0.00 78 1013.9
20260906010526 67 75 0.0 0.0 0.00 0.00 0.00 77 1013.9
20260906010026 68 75 0.0 0.0 0.00 0.00 0.00 77 1013.9
20260906005525 68 74 0.0 0.0 0.00 0.00 0.00 76 1014.0
20260906005029 68 74 0.0 0.0 0.00 0.00 0.00 76 1014.0
20260906004525 68 74 0.0 0.0 0.00 0.00 0.00 76 1013.9
20260906004025 69 74 0.0 0.0 0.00 0.00 0.00 75 1013.7
20260906003525 69 74 0.0 0.0 0.00 0.00 0.00 75 1013.6
20260906003025 69 74 0.0 0.0 0.00 0.00 0.00 74 1013.6
20260906002525 70 74 0.0 0.0 0.00 0.00 0.00 73 1013.5
20260906002024 70 74 0.0 0.0 0.00 0.00 0.00 73 1013.5
20260906001525 70 74 0.0 0.0 0.00 0.00 0.00 72 1013.4
20260906001023 71 74 0.0 0.0 0.00 0.00 0.00 72 1013.5
20260906000530 71 74 0.0 0.0 0.00 0.00 0.00 71 1013.6
20260906000024 71 74 0.0 0.0 0.00 0.00 0.00 70 1013.5
20260905235523 72 74 0.0 0.0 0.00 0.00 0.00 70 1013.4
20260905235023 72 74 0.0 0.0 0.00 0.00 0.00 69 1013.4
20260905234523 72 74 0.0 0.0 0.00 0.00 0.00 69 1013.4
20260905234026 73 74 0.0 0.0 0.00 0.00 0.00 68 1013.4
20260905233523 73 340 0.0 0.0 0.00 0.00 0.00 68 1013.5
20260905233024 73 340 0.0 0.0 0.00 0.00 0.00 67 1013.5
20260905232526 74 339 0.0 0.0 0.00 0.00 0.00 66 1013.5
20260905232022 74 339 0.0 5.0 0.00 0.00 0.00 65 1013.5
20260905231523 74 339 0.0 5.0 0.00 0.00 0.00 65 1013.4
20260905231021 74 33 0.0 0.0 0.00 0.00 0.00 65 1013.3
20260905230529 75 32 0.0 0.0 0.00 0.00 0.00 64 1013.3
20260905230022 75 30 0.0 0.0 0.00 0.00 0.00 63 1013.3
20260905225521 75 28 0.0 0.0 0.00 0.00 0.00 63 1013.2
20260905225021 75 28 0.0 0.0 0.00 0.00 0.00 63 1013.1
20260905224522 75 36 0.0 4.0 0.00 0.00 0.00 62 1013.1
20260905224022 75 54 1.0 4.0 0.00 0.00 0.00 62 1013.3
20260905223525 75 25 0.0 4.0 0.00 0.00 0.00 62 1013.2
20260905223021 75 26 0.0 4.0 0.00 0.00 0.00 61 1013.2
20260905222526 75 302 0.0 4.0 0.00 0.00 0.00 61 1013.1
20260905222022 76 317 2.0 5.0 0.00 0.00 0.00 61 1013.0
20260905221532 75 89 2.0 5.0 0.00 0.00 0.00 61 1013.0
20260905221021 75 250 1.0 6.0 0.00 0.00 0.00 62 1012.9
20260905220522 75 330 1.0 6.0 0.00 0.00 0.00 63 1012.9
20260905220021 75 304 0.0 0.0 0.00 0.00 0.00 64 1012.9
20260905215520 75 251 0.0 0.0 0.00 0.00 0.00 63 1012.7
20260905215020 75 249 0.0 0.0 0.00 0.00 0.00 63 1012.8
20260905214519 75 59 0.0 0.0 0.00 0.00 0.00 62 1012.7
20260905214019 75 61 0.0 3.0 0.00 0.00 0.00 63 1012.6
20260905213519 75 61 0.0 6.0 0.00 0.00 0.00 63 1012.6
20260905213029 75 323 1.0 6.0 0.00 0.00 0.00 63 1012.6
20260905212519 75 297 0.0 0.0 0.00 0.00 0.00 63 1012.5
20260905212022 76 251 0.0 0.0 0.00 0.00 0.00 65 1012.5
20260905211521 76 189 0.0 0.0 0.00 0.00 0.00 64 1012.5
20260905211019 76 250 0.0 0.0 0.00 0.00 0.00 62 1012.5
20260905210519 76 273 0.0 0.0 0.00 0.00 0.00 61 1012.5
20260905210026 76 271 0.0 6.0 0.00 0.00 0.00 60 1012.5
20260905205518 77 253 2.0 6.0 0.00 0.00 0.00 59 1012.5
20260905205021 77 277 0.0 5.0 0.00 0.00 0.00 61 1012.4
20260905204518 77 261 2.0 9.0 0.00 0.00 0.00 61 1012.4
20260905204016 77 309 4.0 9.0 0.00 0.00 0.00 62 1012.3
20260905203515 77 351 0.0 7.0 0.00 0.00 0.00 64 1012.3
20260905203015 76 309 2.0 7.0 0.00 0.00 0.00 63 1012.3
20260905202515 76 288 2.0 6.0 0.00 0.00 0.00 64 1012.4
20260905202015 76 334 0.0 5.0 0.00 0.00 0.00 63 1012.4
20260905201524 76 338 2.0 7.0 0.00 0.00 0.00 61 1012.5
20260905201014 76 265 1.0 7.0 0.00 0.00 0.00 62 1012.5
20260905200516 76 260 1.0 6.0 0.00 0.00 0.00 61 1012.5
20260905200014 76 44 1.0 6.0 0.00 0.00 0.00 61 1012.5
20260905195515 76 344 0.0 3.0 0.00 0.00 0.00 60 1012.6
20260905195013 76 360 0.0 4.0 0.00 0.00 0.00 59 1012.5
20260905194513 76 34 1.0 4.0 0.00 0.00 0.00 60 1012.5
20260905194013 76 16 0.0 5.0 0.00 0.00 0.00 60 1012.4
20260905193513 76 17 2.0 5.0 0.00 0.00 0.00 62 1012.3
20260905193013 76 263 0.0 8.0 0.00 0.00 0.00 64 1012.4
20260905192513 76 225 2.0 8.0 0.00 0.00 0.00 64 1012.5
20260905192010 76 274 3.0 8.0 0.00 0.00 0.00 63 1012.6
20260905191509 76 54 0.0 4.0 0.00 0.00 0.00 64 1012.6
20260905191009 75 312 0.0 6.0 0.00 0.00 0.00 62 1012.7
20260905190510 75 10 2.0 6.0 0.00 0.00 0.00 61 1012.7
20260905190009 75 360 0.0 4.0 0.00 0.00 0.00 61 1012.6
20260905185509 75 311 0.0 4.0 0.00 0.00 0.00 62 1012.6
20260905185008 75 309 0.0 3.0 0.00 0.00 0.00 65 1012.6
20260905184508 75 321 0.0 5.0 0.00 0.00 0.00 65 1012.6
20260905184008 75 355 2.0 5.0 0.00 0.00 0.00 64 1012.6
20260905183507 75 266 1.0 7.0 0.00 0.00 0.00 65 1012.6
20260905183007 75 272 4.0 9.0 0.00 0.00 0.00 63 1012.6
20260905182508 75 240 3.0 8.0 0.00 0.00 0.00 62 1012.7
20260905182007 76 249 2.0 6.0 0.00 0.00 0.00 61 1012.7
20260905181507 76 32 0.0 5.0 0.00 0.00 0.00 61 1012.6
20260905181006 76 308 0.0 5.0 0.00 0.00 0.00 61 1012.6
20260905180507 75 324 0.0 4.0 0.00 0.00 0.00 62 1012.6
20260905180006 75 304 1.0 4.0 0.00 0.00 0.00 63 1012.5
20260905175506 75 240 0.0 7.0 0.00 0.00 0.00 62 1012.5
20260905175006 75 238 0.0 10.0 0.00 0.00 0.00 61 1012.7
20260905174512 75 236 4.0 10.0 0.00 0.00 0.00 62 1012.7
20260905174005 75 283 1.0 5.0 0.00 0.00 0.00 63 1012.6
20260905173505 75 226 2.0 5.0 0.00 0.00 0.00 67 1012.6
20260905173006 75 176 0.0 7.0 0.00 0.00 0.00 65 1012.7
20260905172502 75 227 3.0 7.0 0.00 0.00 0.00 64 1012.8
20260905172101 75 263 0.0 0.0 0.00 0.00 0.00 62 1012.8
20260905171500 75 263 0.0 0.0 0.00 0.00 0.00 61 1012.9
20260905171101 75 218 0.0 1.0 0.00 0.00 0.00 61 1012.9
20260905170559 75 200 0.0 5.0 0.00 0.00 0.00 62 1012.9
20260905170106 74 336 2.0 5.0 0.00 0.00 0.00 64 1013.0
20260905165558 74 342 0.0 3.0 0.00 0.00 0.00 65 1013.1
20260905165104 74 307 0.0 4.0 0.00 0.00 0.00 63 1013.1
20260905164559 74 279 0.0 4.0 0.00 0.00 0.00 64 1013.0
20260905164059 74 300 0.0 4.0 0.00 0.00 0.00 63 1013.1
20260905163600 75 346 0.0 4.0 0.00 0.00 0.00 63 1013.1
20260905163102 75 34 1.0 3.0 0.00 0.00 0.00 62 1013.0
20260905162558 75 299 0.0 6.0 0.00 0.00 0.00 63 1013.0
20260905162056 75 288 2.0 8.0 0.00 0.00 0.00 62 1013.0
20260905161556 74 60 3.0 6.0 0.00 0.00 0.00 64 1013.0
20260905161054 74 320 0.0 6.0 0.00 0.00 0.00 66 1013.0
20260905160553 73 16 0.0 3.0 0.00 0.00 0.00 66 1013.0
20260905160054 73 49 0.0 4.0 0.00 0.00 0.00 65 1013.1
20260905155555 74 84 1.0 6.0 0.00 0.00 0.00 64 1013.2
20260905155054 74 9 2.0 6.0 0.00 0.00 0.00 64 1013.3
20260905154553 74 46 0.0 5.0 0.00 0.00 0.00 64 1013.2
20260905154050 74 42 2.0 5.0 0.00 0.00 0.00 64 1013.3
20260905153549 74 31 1.0 5.0 0.00 0.00 0.00 64 1013.2
20260905153048 74 284 0.0 5.0 0.00 0.00 0.00 65 1013.3
20260905152546 74 236 2.0 6.0 0.00 0.00 0.00 67 1013.2
20260905152045 73 15 2.0 7.0 0.00 0.00 0.00 65 1013.2
20260905151545 73 297 0.0 7.0 0.00 0.00 0.00 64 1013.4
20260905151044 74 336 1.0 10.0 0.00 0.00 0.00 64 1013.3
20260905150543 74 252 5.0 10.0 0.00 0.00 0.00 64 1013.4
20260905150042 74 257 5.0 8.0 0.00 0.00 0.00 67 1013.3
20260905145541 73 283 2.0 7.0 0.00 0.00 0.00 67 1013.4
20260905145040 73 259 2.0 9.0 0.00 0.00 0.00 68 1013.4
20260905144542 73 38 2.0 9.0 0.00 0.00 0.00 68 1013.3
20260905144036 72 17 2.0 8.0 0.00 0.00 0.00 70 1013.3
20260905143536 72 96 2.0 9.0 0.00 0.00 0.00 71 1013.4
20260905143035 71 26 3.0 9.0 0.00 0.00 0.00 74 1013.3
20260905142532 70 71 3.0 9.0 0.00 0.00 0.00 76 1013.3
20260905142030 69 355 3.0 8.0 0.00 0.00 0.00 78 1013.3
20260905141530 69 15 2.0 8.0 0.00 0.00 0.00 80 1013.4
20260905141028 68 50 2.0 9.0 0.00 0.00 0.00 82 1013.4
20260905140527 68 242 1.0 6.0 0.00 0.00 0.00 84 1013.4
20260905140026 68 268 1.0 10.0 0.00 0.00 0.00 87 1013.5
20260905135525 67 267 4.0 10.0 0.00 0.00 0.00 89 1013.4
20260905135024 67 238 0.0 4.0 0.00 0.00 0.00 91 1013.3
20260905134523 66 360 0.0 4.0 0.00 0.00 0.00 91 1013.2
20260905134024 66 24 0.0 6.0 0.00 0.00 0.00 91 1013.3
20260905133522 66 30 2.0 6.0 0.00 0.00 0.00 92 1013.4
20260905133022 66 302 0.0 8.0 0.00 0.00 0.00 92 1013.3
20260905132522 66 17 0.0 2.0 0.00 0.00 0.00 92 1013.4
20260905132022 66 305 0.0 5.0 0.00 0.00 0.00 93 1013.3
20260905131541 65 242 1.0 5.0 0.00 0.00 0.00 93 1013.3
20260905131022 65 336 0.0 0.0 0.00 0.00 0.00 93 1013.3
20260905130521 64 342 0.0 0.0 0.00 0.00 0.00 93 1013.3
20260905130021 64 217 0.0 0.0 0.00 0.00 0.00 93 1013.3
20260905125523 63 152 0.0 0.0 0.00 0.00 0.00 93 1013.4
20260905125021 63 152 0.0 0.0 0.00 0.00 0.00 93 1013.5
20260905124535 62 150 0.0 1.0 0.00 0.00 0.00 93 1013.6
20260905124020 62 152 0.0 5.0 0.00 0.00 0.00 92 1013.7
20260905123520 62 161 1.0 5.0 0.00 0.00 0.00 92 1013.8
20260905123019 61 238 0.0 7.0 0.00 0.00 0.00 92 1013.9
20260905122520 61 229 3.0 7.0 0.00 0.00 0.00 92 1014.0
20260905122018 61 146 1.0 3.0 0.00 0.00 0.00 92 1013.9
20260905121524 61 147 1.0 3.0 0.00 0.00 0.00 92 1013.9
20260905121021 61 225 0.0 4.0 0.00 0.00 0.00 92 1013.8
20260905120520 61 246 2.0 7.0 0.00 0.00 0.00 91 1013.8
20260905120017 61 225 2.0 4.0 0.00 0.00 0.00 91 1013.7
20260905115517 61 252 1.0 3.0 0.00 0.00 0.00 91 1013.7
20260905115019 60 244 0.0 3.0 0.00 0.00 0.00 91 1013.5
20260905114534 60 260 1.0 3.0 0.00 0.00 0.00 91 1013.3
20260905114014 60 251 0.0 3.0 0.00 0.00 0.00 91 1013.1
20260905113514 60 247 0.0 3.0 0.00 0.00 0.00 91 1013.1
20260905113013 60 247 0.0 3.0 0.00 0.00 0.00 91 1013.1
20260905112513 60 229 0.0 0.0 0.00 0.00 0.00 91 1013.2
20260905112016 60 229 0.0 2.0 0.00 0.00 0.00 91 1013.1
20260905111516 59 229 0.0 3.0 0.00 0.00 0.00 90 1013.1
20260905111013 59 234 0.0 3.0 0.00 0.00 0.00 90 1013.2
20260905110512 59 234 0.0 5.0 0.00 0.00 0.00 90 1013.2
20260905110011 59 234 1.0 5.0 0.00 0.00 0.00 90 1013.1
20260905105511 59 287 0.0 0.0 0.00 0.00 0.00 89 1013.1
20260905105011 59 286 0.0 0.0 0.00 0.00 0.00 89 1012.9
20260905104510 59 287 0.0 0.0 0.00 0.00 0.00 89 1012.9
20260905104010 59 287 0.0 0.0 0.00 0.00 0.00 90 1012.6
20260905103512 59 287 0.0 0.0 0.00 0.00 0.00 90 1012.6
20260905103023 59 287 0.0 0.0 0.00 0.00 0.00 89 1012.5
20260905102509 59 287 0.0 0.0 0.00 0.00 0.00 89 1012.4
20260905102007 59 287 0.0 0.0 0.00 0.00 0.00 89 1012.4
20260905101513 59 287 0.0 0.0 0.00 0.00 0.00 89 1012.3
20260905101006 59 287 0.0 0.0 0.00 0.00 0.00 89 1012.3
20260905100506 59 286 0.0 0.0 0.00 0.00 0.00 89 1012.2
20260905100006 59 286 0.0 0.0 0.00 0.00 0.00 89 1012.3
20260905095505 60 287 0.0 0.0 0.00 0.00 0.00 89 1012.2
20260905095005 60 287 0.0 0.0 0.00 0.00 0.00 89 1012.3
20260905094505 60 287 0.0 0.0 0.00 0.00 0.00 89 1012.2
20260905094007 60 287 0.0 0.0 0.00 0.00 0.00 89 1012.0
20260905093504 60 287 0.0 0.0 0.00 0.00 0.00 89 1012.1
20260905093003 60 287 0.0 0.0 0.00 0.00 0.00 89 1012.1
20260905092502 60 287 0.0 0.0 0.00 0.00 0.00 89 1012.1
20260905092003 60 287 0.0 0.0 0.00 0.00 0.00 89 1012.1
20260905091502 60 287 0.0 0.0 0.00 0.00 0.00 89 1012.1
20260905091002 60 287 0.0 0.0 0.00 0.00 0.00 89 1012.1
20260905090501 60 287 0.0 0.0 0.00 0.00 0.00 89 1012.0
20260905090002 60 287 0.0 0.0 0.00 0.00 0.00 89 1012.1
20260905085602 60 287 0.0 0.0 0.00 0.00 0.00 89 1012.1
20260905085102 61 287 0.0 0.0 0.00 0.00 0.00 89 1012.0
20260905084617 61 286 0.0 0.0 0.00 0.00 0.00 89 1012.1
20260905084059 61 287 0.0 0.0 0.00 0.00 0.00 89 1012.1
20260905083559 61 287 0.0 0.0 0.00 0.00 0.00 89 1012.1
20260905083058 61 287 0.0 0.0 0.00 0.00 0.00 89 1012.1
20260905082558 61 287 0.0 0.0 0.00 0.00 0.00 88 1012.1
20260905082057 61 287 0.0 0.0 0.00 0.00 0.00 88 1012.2
20260905081559 61 287 0.0 0.0 0.00 0.00 0.00 88 1012.2
20260905081055 61 287 0.0 0.0 0.00 0.00 0.00 88 1012.2
20260905080555 61 287 0.0 0.0 0.00 0.00 0.00 88 1012.2
20260905080055 61 287 0.0 0.0 0.00 0.00 0.00 88 1012.2
20260905075557 62 286 0.0 0.0 0.00 0.00 0.00 88 1012.2
20260905075054 62 287 0.0 0.0 0.00 0.00 0.00 88 1012.3
20260905074557 62 287 0.0 0.0 0.00 0.00 0.00 88 1012.2
20260905074053 62 289 0.0 0.0 0.00 0.00 0.00 88 1012.2
20260905073555 62 289 0.0 0.0 0.00 0.00 0.00 88 1012.1
20260905073053 62 289 0.0 0.0 0.00 0.00 0.00 88 1012.2
20260905072556 62 290 0.0 0.0 0.00 0.00 0.00 88 1012.3
20260905072054 62 178 0.0 0.0 0.00 0.00 0.00 88 1012.2
20260905071557 62 178 0.0 0.0 0.00 0.00 0.00 87 1012.3
20260905071049 62 178 0.0 0.0 0.00 0.00 0.00 87 1012.4
20260905070550 62 178 0.0 0.0 0.00 0.00 0.00 87 1012.4
20260905070152 62 178 0.0 0.0 0.00 0.00 0.00 87 1012.4
20260905065548 62 178 0.0 0.0 0.00 0.00 0.00 87 1012.4
20260905065048 62 174 0.0 0.0 0.00 0.00 0.00 87 1012.5
20260905064548 62 175 0.0 0.0 0.00 0.00 0.00 87 1012.5
20260905064049 62 173 0.0 0.0 0.00 0.00 0.00 86 1012.5
20260905063546 63 173 0.0 0.0 0.00 0.00 0.00 86 1012.6
20260905063051 63 173 0.0 0.0 0.00 0.00 0.00 86 1012.6
20260905062546 63 173 0.0 0.0 0.00 0.00 0.00 86 1012.6
20260905062045 63 173 0.0 0.0 0.00 0.00 0.00 86 1012.7
20260905061547 63 173 0.0 0.0 0.00 0.00 0.00 86 1012.7
20260905061049 63 173 0.0 0.0 0.00 0.00 0.00 86 1012.8
20260905060544 63 173 0.0 0.0 0.00 0.00 0.00 85 1012.7
20260905060043 63 173 0.0 0.0 0.00 0.00 0.00 85 1012.8
20260905055542 63 173 0.0 0.0 0.00 0.00 0.00 85 1012.8
20260905055042 63 206 0.0 0.0 0.00 0.00 0.00 84 1012.8
20260905054542 63 209 0.0 0.0 0.00 0.00 0.00 84 1012.9
20260905054041 63 209 0.0 0.0 0.00 0.00 0.00 84 1012.8
20260905053540 63 209 0.0 0.0 0.00 0.00 0.00 84 1012.9
20260905053040 64 209 0.0 0.0 0.00 0.00 0.00 83 1012.9
20260905052539 64 209 0.0 0.0 0.00 0.00 0.00 83 1012.9
20260905052038 64 209 0.0 0.0 0.00 0.00 0.00 83 1012.9
20260905051539 64 209 0.0 0.0 0.00 0.00 0.00 83 1013.0
20260905051037 64 209 0.0 0.0 0.00 0.00 0.00 83 1013.0
20260905050538 64 209 0.0 0.0 0.00 0.00 0.00 82 1013.1
20260905050036 65 209 0.0 0.0 0.00 0.00 0.00 82 1013.0
20260905045535 65 209 0.0 0.0 0.00 0.13 0.00 82 1013.1
20260905045036 65 209 0.0 0.0 0.00 0.13 0.00 82 1013.1
20260905044535 65 209 0.0 0.0 0.00 0.13 0.00 82 1013.1
20260905044037 65 209 0.0 0.0 0.00 0.13 0.00 82 1013.1
20260905043532 66 209 0.0 0.0 0.00 0.13 0.00 82 1013.1
20260905043031 66 209 0.0 0.0 0.00 0.13 0.00 81 1013.1
20260905042532 66 209 0.0 0.0 0.00 0.13 0.00 82 1013.2
20260905042029 66 209 0.0 0.0 0.00 0.13 0.00 82 1013.1
20260905041528 66 209 0.0 0.0 0.00 0.13 0.00 81 1013.0
20260905041029 67 209 0.0 0.0 0.00 0.13 0.00 81 1013.1
20260905040527 67 209 0.0 0.0 0.00 0.13 0.00 82 1013.0
20260905040027 67 209 0.0 0.0 0.00 0.13 0.00 82 1013.0
20260905035527 67 209 0.0 0.0 0.00 0.83 0.13 81 1013.0
20260905035026 67 209 0.0 0.0 0.00 0.83 0.13 81 1012.9
20260905034529 67 209 0.0 0.0 0.00 0.83 0.13 81 1012.9
20260905034025 67 209 0.0 0.0 0.00 0.83 0.13 81 1012.9
20260905033525 67 209 0.0 0.0 0.00 0.83 0.13 81 1013.0
20260905033025 68 209 0.0 0.0 0.00 0.83 0.13 81 1012.9
20260905032524 68 209 0.0 0.0 0.00 0.83 0.13 81 1012.9
20260905032024 68 209 0.0 0.0 0.00 0.83 0.13 81 1012.9
20260905031532 68 209 0.0 0.0 0.00 0.83 0.13 81 1012.8
20260905031023 68 209 0.0 0.0 0.00 0.83 0.13 81 1012.9
20260905030524 68 209 0.0 0.0 0.00 0.83 0.13 81 1012.9